Location: ??
(34.9170°N, 135.5016°E)
Time: 01:46:10
(UTC+00:00)

ATLAS CENTAUR R/B - Pass Details

Date: 29 October 2020
Orbit: 478 x 667 km, 64.7° (Epoch: 22 November)

Event Time Altitude Azimuth Distance (km) Brightness Sun altitude
Rises 20:41:37 0° 230° (SW) 2,681 4.5 -7.9°
Reaches altitude 10° 20:44:02 10° 240° (WSW) 1,761 3.5 -7.4°
Maximum altitude 20:47:32 31° 304° (WNW) 912 2.0 -6.7°
Drops below altitude 10° 20:50:56 10° 8° (N) 1,694 3.8 -6.0°
Sets 20:53:13 0° 19° (NNE) 2,561 4.8 -5.5°
